2023/01/31 00:00:00,98.1,-1.9
2023/01/31 00:10:00,98.1,-1.7
2023/01/31 00:20:00,98.2,-1.6
2023/01/31 00:30:00,98.1,-1.3
2023/01/31 00:40:00,97.9,-1.5
2023/01/31 00:50:00,97.8,-1.7
2023/01/31 01:00:00,97.7,-1.6
2023/01/31 01:10:00,97.7,-1.6
2023/01/31 01:20:00,97.5,-1.8
2023/01/31 01:30:00,97.4,-1.7
2023/01/31 01:40:00,97.4,-2.1
2023/01/31 01:50:00,97.4,-1.8
2023/01/31 02:00:00,97.4,-1.7
2023/01/31 02:10:00,97.2,-1.9
2023/01/31 02:20:00,97.1,-1.6
2023/01/31 02:30:00,96.9,-1.2
2023/01/31 02:40:00,96.9,-1.5
2023/01/31 02:50:00,96.8,-1.7
2023/01/31 03:00:00,96.6,-1.6
2023/01/31 03:10:00,96.4,-1.8
2023/01/31 03:20:00,96.6,-1.6
2023/01/31 03:30:00,96.4,-1.9
2023/01/31 03:40:00,96.2,-1.9
2023/01/31 03:50:00,96.2,-2.0
2023/01/31 04:00:00,96.1,-2.2
2023/01/31 04:10:00,96.1,-2.1
2023/01/31 04:20:00,96.0,-2.1
2023/01/31 04:30:00,96.0,-2.2
2023/01/31 04:40:00,95.9,-2.1
2023/01/31 04:50:00,95.9,-2.4
2023/01/31 05:00:00,95.8,-2.1
2023/01/31 05:10:00,95.8,-2.2
2023/01/31 05:20:00,95.9,-2.2
2023/01/31 05:30:00,95.7,-2.0
2023/01/31 05:40:00,95.9,-2.1
2023/01/31 05:50:00,95.8,-2.4
2023/01/31 06:00:00,95.7,-1.8
2023/01/31 06:10:00,95.6,-2.1
2023/01/31 06:20:00,95.6,-2.2
2023/01/31 06:30:00,95.6,-2.1
2023/01/31 06:40:00,95.5,-2.2
2023/01/31 06:50:00,95.4,-1.9
2023/01/31 07:00:00,95.2,-2.1
2023/01/31 07:10:00,95.1,-2.0
2023/01/31 07:20:00,95.1,-2.1
2023/01/31 07:30:00,95.1,-2.3
2023/01/31 07:40:00,95.2,-2.4
2023/01/31 07:50:00,95.0,-2.1
2023/01/31 08:00:00,94.8,-2.6
2023/01/31 08:10:00,94.6,-2.4
2023/01/31 08:20:00,94.5,-2.7
2023/01/31 08:30:00,94.5,-3.2
2023/01/31 08:40:00,94.4,-3.1
2023/01/31 08:50:00,94.3,-2.8
2023/01/31 09:00:00,94.3,-2.9
2023/01/31 09:10:00,94.3,-2.4
2023/01/31 09:20:00,94.1,-1.2
2023/01/31 09:30:00,94.0,-0.3
2023/01/31 09:40:00,93.8,-0.1
2023/01/31 09:50:00,93.8,-0.2
2023/01/31 10:00:00,93.7, 0.8
2023/01/31 10:10:00,93.7, 1.3
2023/01/31 10:20:00,93.6, 1.4
2023/01/31 10:30:00,93.3, 2.2
2023/01/31 10:40:00,93.2, 2.7
2023/01/31 10:50:00,93.1, 2.9
2023/01/31 11:00:00,93.0, 3.2
2023/01/31 11:10:00,92.9, 4.1
2023/01/31 11:20:00,92.9, 4.6
2023/01/31 11:30:00,92.8, 5.3
2023/01/31 11:40:00,92.7, 5.1
2023/01/31 11:50:00,92.6, 5.4
2023/01/31 12:00:00,89.7, 5.9
2023/01/31 12:10:00,82.7, 6.1
2023/01/31 12:20:00,81.9, 4.6
2023/01/31 12:30:00,81.7, 4.2
2023/01/31 12:40:00,81.7, 3.9
2023/01/31 12:50:00,81.7, 3.8
2023/01/31 13:00:00,81.7, 4.0
2023/01/31 13:10:00,81.8, 4.7
2023/01/31 13:20:00,81.8, 4.4
2023/01/31 13:30:00,82.1, 5.7
2023/01/31 13:40:00,82.1, 6.0
2023/01/31 13:50:00,81.2, 4.8
2023/01/31 14:00:00,80.7, 5.7
2023/01/31 14:10:00,80.5, 7.7
2023/01/31 14:20:00,80.2, 4.2
2023/01/31 14:30:00,80.0, 4.9
2023/01/31 14:40:00,79.9, 4.3
2023/01/31 14:50:00,79.6, 3.5
2023/01/31 15:00:00,79.5, 3.7
2023/01/31 15:10:00,79.4, 3.0
2023/01/31 15:20:00,79.3, 2.9
2023/01/31 15:30:00,79.2, 4.6
2023/01/31 15:40:00,79.2, 6.3
2023/01/31 15:50:00,79.3, 5.4
2023/01/31 16:00:00,79.0, 3.1
2023/01/31 16:10:00,78.9, 2.1
2023/01/31 16:20:00,79.0, 3.6
2023/01/31 16:30:00,79.1, 5.7
2023/01/31 16:40:00,78.9, 4.2
2023/01/31 16:50:00,78.6, 3.6
2023/01/31 17:00:00,78.4, 2.2
2023/01/31 17:10:00,78.2, 1.2
2023/01/31 17:20:00,77.9, 0.7
2023/01/31 17:30:00,77.6, 0.5
2023/01/31 17:40:00,77.6, 0.6
2023/01/31 17:50:00,77.7, 0.4
2023/01/31 18:00:00,77.8, 0.2
2023/01/31 18:10:00,77.9, 0.5
2023/01/31 18:20:00,77.6, 0.1
2023/01/31 18:30:00,77.7,-0.1
2023/01/31 18:40:00,77.8,-0.1
2023/01/31 18:50:00,77.6,-0.2
2023/01/31 19:00:00,77.4,-0.5
2023/01/31 19:10:00,77.2,-0.4
2023/01/31 19:20:00,77.2,-0.7
2023/01/31 19:30:00,77.0,-0.4
2023/01/31 19:40:00,76.9,-0.4
2023/01/31 19:50:00,77.0,-0.7
2023/01/31 20:00:00,77.1,-0.7
2023/01/31 20:10:00,76.8,-0.6
2023/01/31 20:20:00,76.6,-0.7
2023/01/31 20:30:00,76.7,-0.6
2023/01/31 20:40:00,76.7,-0.8
2023/01/31 20:50:00,76.8,-0.4
2023/01/31 21:00:00,76.5,-0.7
2023/01/31 21:10:00,76.3,-1.0
2023/01/31 21:20:00,76.3,-1.2
2023/01/31 21:30:00,76.2,-1.1
2023/01/31 21:40:00,76.2,-1.2
2023/01/31 21:50:00,76.0,-1.2
2023/01/31 22:00:00,76.0,-0.9
2023/01/31 22:10:00,76.0,-1.1
2023/01/31 22:20:00,75.9,-1.1
2023/01/31 22:30:00,75.9,-0.9
2023/01/31 22:40:00,75.9,-1.1
2023/01/31 22:50:00,75.9,-1.1
2023/01/31 23:00:00,75.8,-1.4
2023/01/31 23:10:00,75.7,-1.2
2023/01/31 23:20:00,75.7,-1.2
2023/01/31 23:30:00,75.7,-1.2
2023/01/31 23:40:00,75.7,-1.5
2023/01/31 23:50:00,75.6,-0.8
